| time (UTC) | temp F | wind direction | speed MPH | gust MPH | rain 1hr in | rain 24hr in | rain mn in | humidity % | barometer mb |
| 20260509023454 | 66 | 68 | 2.0 | 2.0 | 0.00 | 0.00 | 0.01 | 70 | 1014.3 |
| 20260509022938 | 67 | 338 | 2.0 | 2.0 | 0.00 | 0.00 | 0.01 | 68 | 1014.2 |
| 20260509022418 | 67 | 45 | 3.0 | 3.0 | 0.00 | 0.00 | 0.01 | 67 | 1014.2 |
| 20260509021338 | 69 | 45 | 1.0 | 1.0 | 0.00 | 0.00 | 0.01 | 64 | 1014.2 |
| 20260509020823 | 70 | 45 | 2.0 | 2.0 | 0.00 | 0.00 | 0.01 | 63 | 1014.2 |
| 20260509020303 | 71 | 90 | 2.0 | 2.0 | 0.00 | 0.00 | 0.01 | 61 | 1014.3 |
| 20260509015743 | 71 | 68 | 3.0 | 3.0 | 0.00 | 0.00 | 0.01 | 60 | 1014.3 |
| 20260509015223 | 73 | 90 | 3.0 | 3.0 | 0.00 | 0.00 | 0.01 | 59 | 1014.2 |
| 20260509014148 | 76 | 45 | 3.0 | 3.0 | 0.00 | 0.00 | 0.01 | 56 | 1014.3 |
| 20260509013628 | 78 | 68 | 3.0 | 3.0 | 0.00 | 0.00 | 0.01 | 54 | 1014.3 |
| 20260509013108 | 80 | 45 | 2.0 | 2.0 | 0.00 | 0.00 | 0.01 | 54 | 1014.4 |
| 20260509012554 | 81 | 0 | 3.0 | 3.0 | 0.00 | 0.00 | 0.01 | 54 | 1014.4 |
| 20260509012053 | 81 | 180 | 2.0 | 2.0 | 0.00 | 0.00 | 0.01 | 54 | 1014.4 |
| 20260509011533 | 81 | 45 | 2.0 | 2.0 | 0.00 | 0.00 | 0.01 | 54 | 1014.4 |
| 20260509010453 | 80 | 180 | 3.0 | 3.0 | 0.00 | 0.00 | 0.01 | 54 | 1014.4 |
| 20260509005938 | 80 | 113 | 2.0 | 2.0 | 0.00 | 0.00 | 0.01 | 55 | 1014.4 |
| 20260509005418 | 79 | 225 | 2.0 | 2.0 | 0.00 | 0.00 | 0.01 | 55 | 1014.5 |
| 20260509004858 | 77 | 180 | 2.0 | 2.0 | 0.00 | 0.00 | 0.01 | 56 | 1014.5 |
| 20260509003823 | 78 | 180 | 3.0 | 3.0 | 0.00 | 0.00 | 0.01 | 55 | 1014.5 |
| 20260509003304 | 79 | 113 | 3.0 | 3.0 | 0.00 | 0.00 | 0.01 | 55 | 1014.5 |
| 20260509002743 | 80 | 90 | 3.0 | 3.0 | 0.00 | 0.00 | 0.01 | 54 | 1014.7 |
| 20260509002223 | 82 | 90 | 4.0 | 4.0 | 0.00 | 0.00 | 0.01 | 53 | 1014.7 |
| 20260509001704 | 82 | 0 | 2.0 | 2.0 | 0.00 | 0.00 | 0.01 | 53 | 1014.6 |
| 20260509001148 | 83 | 90 | 3.0 | 3.0 | 0.00 | 0.00 | 0.01 | 52 | 1014.6 |
| 20260509000628 | 83 | 90 | 3.0 | 3.0 | 0.00 | 0.00 | 0.01 | 51 | 1014.8 |
| 20260509000108 | 81 | 135 | 3.0 | 3.0 | 0.00 | 0.00 | 0.01 | 54 | 1014.8 |
| 20260508235034 | 82 | 45 | 3.0 | 3.0 | 0.00 | 0.00 | 0.01 | 53 | 1014.9 |
| 20260508234513 | 81 | 180 | 2.0 | 2.0 | 0.00 | 0.00 | 0.01 | 54 | 1014.9 |
| 20260508233953 | 81 | 180 | 3.0 | 3.0 | 0.00 | 0.00 | 0.01 | 55 | 1015.0 |
| 20260508233433 | 80 | 113 | 3.0 | 3.0 | 0.00 | 0.00 | 0.01 | 54 | 1015.0 |
| 20260508232918 | 79 | 113 | 4.0 | 4.0 | 0.00 | 0.00 | 0.01 | 55 | 1015.0 |
| 20260508232358 | 78 | 135 | 4.0 | 4.0 | 0.00 | 0.00 | 0.01 | 55 | 1015.0 |
| 20260508231838 | 78 | 68 | 4.0 | 4.0 | 0.00 | 0.00 | 0.01 | 55 | 1015.1 |
| 20260508230803 | 78 | 90 | 5.0 | 5.0 | 0.00 | 0.00 | 0.01 | 55 | 1015.1 |
| 20260508230243 | 79 | 68 | 3.0 | 3.0 | 0.00 | 0.00 | 0.01 | 54 | 1015.2 |
| 20260508225223 | 79 | 90 | 5.0 | 5.0 | 0.00 | 0.00 | 0.01 | 55 | 1015.5 |
| 20260508224533 | 78 | 113 | 5.0 | 5.0 | 0.00 | 0.00 | 0.01 | 55 | 1015.5 |
| 20260508224013 | 78 | 23 | 5.0 | 5.0 | 0.00 | 0.00 | 0.01 | 55 | 1015.5 |
| 20260508223454 | 80 | 45 | 6.0 | 6.0 | 0.00 | 0.00 | 0.01 | 54 | 1015.5 |
| 20260508222419 | 87 | 0 | 3.0 | 3.0 | 0.00 | 0.00 | 0.01 | 48 | 1015.7 |
| 20260508221858 | 86 | 248 | 3.0 | 3.0 | 0.00 | 0.00 | 0.01 | 49 | 1015.8 |
| 20260508221339 | 86 | 225 | 2.0 | 2.0 | 0.00 | 0.00 | 0.01 | 48 | 1015.8 |
| 20260508220819 | 85 | 270 | 3.0 | 3.0 | 0.00 | 0.00 | 0.01 | 51 | 1015.8 |
| 20260508220303 | 83 | 248 | 4.0 | 4.0 | 0.00 | 0.00 | 0.01 | 51 | 1016.0 |
| 20260508215743 | 85 | 270 | 5.0 | 5.0 | 0.00 | 0.00 | 0.01 | 52 | 1016.0 |
| 20260508214704 | 82 | 203 | 3.0 | 3.0 | 0.00 | 0.00 | 0.01 | 54 | 1016.0 |
| 20260508214148 | 82 | 158 | 3.0 | 3.0 | 0.00 | 0.00 | 0.01 | 53 | 1016.4 |
| 20260508213628 | 80 | 203 | 3.0 | 3.0 | 0.00 | 0.00 | 0.01 | 56 | 1016.4 |
| 20260508213109 | 79 | 135 | 5.0 | 5.0 | 0.00 | 0.00 | 0.01 | 55 | 1016.5 |
| 20260508212608 | 80 | 113 | 5.0 | 5.0 | 0.00 | 0.00 | 0.01 | 55 | 1016.5 |
| 20260508212048 | 80 | 248 | 3.0 | 3.0 | 0.00 | 0.00 | 0.01 | 56 | 1016.5 |
| 20260508211528 | 80 | 203 | 4.0 | 4.0 | 0.00 | 0.00 | 0.01 | 55 | 1016.5 |
| 20260508211013 | 78 | 135 | 3.0 | 3.0 | 0.00 | 0.00 | 0.01 | 57 | 1016.5 |
| 20260508210453 | 79 | 113 | 4.0 | 4.0 | 0.00 | 0.00 | 0.01 | 56 | 1016.7 |
| 20260508205934 | 78 | 180 | 4.0 | 4.0 | 0.00 | 0.00 | 0.01 | 55 | 1016.7 |
| 20260508205413 | 79 | 270 | 3.0 | 3.0 | 0.00 | 0.00 | 0.01 | 57 | 1016.7 |
| 20260508204339 | 78 | 68 | 4.0 | 4.0 | 0.00 | 0.00 | 0.01 | 57 | 1016.9 |
| 20260508203819 | 78 | 23 | 3.0 | 3.0 | 0.00 | 0.00 | 0.01 | 57 | 1016.9 |
| 20260508202744 | 77 | 135 | 5.0 | 5.0 | 0.00 | 0.00 | 0.01 | 58 | 1017.0 |
| 20260508202243 | 78 | 203 | 3.0 | 3.0 | 0.00 | 0.00 | 0.01 | 58 | 1017.0 |
| 20260508201723 | 77 | 113 | 3.0 | 3.0 | 0.00 | 0.00 | 0.01 | 58 | 1017.0 |
| 20260508201203 | 77 | 68 | 4.0 | 4.0 | 0.00 | 0.00 | 0.01 | 57 | 1017.0 |
| 20260508200644 | 77 | 158 | 5.0 | 5.0 | 0.00 | 0.00 | 0.01 | 57 | 1017.2 |
| 20260508200144 | 78 | 203 | 3.0 | 3.0 | 0.00 | 0.00 | 0.01 | 58 | 1017.2 |
| 20260508195629 | 76 | 90 | 4.0 | 4.0 | 0.00 | 0.00 | 0.01 | 59 | 1017.2 |
| 20260508195109 | 77 | 270 | 3.0 | 3.0 | 0.00 | 0.00 | 0.01 | 58 | 1017.3 |
| 20260508194528 | 77 | 0 | 3.0 | 3.0 | 0.00 | 0.00 | 0.01 | 58 | 1017.3 |
| 20260508193453 | 76 | 68 | 4.0 | 4.0 | 0.00 | 0.00 | 0.01 | 59 | 1017.4 |
| 20260508192933 | 75 | 68 | 4.0 | 4.0 | 0.00 | 0.00 | 0.01 | 59 | 1017.4 |
| 20260508192414 | 75 | 68 | 4.0 | 4.0 | 0.00 | 0.00 | 0.01 | 59 | 1017.4 |
| 20260508191913 | 76 | 68 | 4.0 | 4.0 | 0.00 | 0.00 | 0.01 | 58 | 1017.5 |
| 20260508191354 | 75 | 45 | 3.0 | 3.0 | 0.00 | 0.00 | 0.01 | 59 | 1017.5 |
| 20260508190839 | 75 | 113 | 5.0 | 5.0 | 0.00 | 0.00 | 0.01 | 58 | 1017.5 |
| 20260508185223 | 74 | 180 | 4.0 | 4.0 | 0.00 | 0.00 | 0.01 | 60 | 1017.6 |
| 20260508184703 | 75 | 270 | 3.0 | 3.0 | 0.00 | 0.00 | 0.01 | 59 | 1017.6 |
| 20260508184144 | 74 | 293 | 3.0 | 3.0 | 0.00 | 0.00 | 0.01 | 60 | 1017.9 |
| 20260508183623 | 74 | 90 | 3.0 | 3.0 | 0.00 | 0.00 | 0.01 | 61 | 1017.9 |
| 20260508183109 | 71 | 180 | 4.0 | 4.0 | 0.00 | 0.00 | 0.01 | 65 | 1017.9 |
| 20260508182549 | 71 | 180 | 3.0 | 3.0 | 0.00 | 0.00 | 0.01 | 63 | 1017.9 |
| 20260508182009 | 69 | 180 | 3.0 | 3.0 | 0.00 | 0.00 | 0.01 | 66 | 1017.9 |
| 20260508180954 | 69 | 225 | 3.0 | 3.0 | 0.00 | 0.00 | 0.01 | 65 | 1018.0 |
| 20260508180434 | 69 | 203 | 5.0 | 5.0 | 0.00 | 0.00 | 0.01 | 65 | 1017.9 |
| 20260508175914 | 68 | 135 | 3.0 | 3.0 | 0.00 | 0.00 | 0.01 | 68 | 1017.9 |
| 20260508175354 | 67 | 0 | 2.0 | 2.0 | 0.00 | 0.00 | 0.01 | 68 | 1018.1 |
| 20260508174839 | 66 | 225 | 4.0 | 4.0 | 0.00 | 0.00 | 0.01 | 70 | 1018.1 |
| 20260508174319 | 66 | 180 | 2.0 | 2.0 | 0.00 | 0.00 | 0.01 | 70 | 1018.2 |
| 20260508173759 | 64 | 338 | 2.0 | 2.0 | 0.00 | 0.00 | 0.01 | 74 | 1018.2 |
| 20260508173224 | 64 | 270 | 1.0 | 1.0 | 0.00 | 0.00 | 0.01 | 75 | 1018.2 |
| 20260508172704 | 63 | 293 | 2.0 | 2.0 | 0.00 | 0.00 | 0.01 | 76 | 1018.2 |
| 20260508172144 | 61 | 113 | 3.0 | 3.0 | 0.00 | 0.00 | 0.01 | 78 | 1018.2 |
| 20260508171109 | 61 | 248 | 0.0 | 0.0 | 0.00 | 0.00 | 0.01 | 79 | 1018.0 |
| 20260508170549 | 61 | 23 | 0.0 | 0.0 | 0.00 | 0.00 | 0.01 | 79 | 1018.0 |
| 20260508164954 | 59 | 270 | 0.0 | 0.0 | 0.00 | 0.00 | 0.01 | 82 | 1017.9 |
| 20260508164434 | 59 | 180 | 0.0 | 0.0 | 0.00 | 0.00 | 0.01 | 82 | 1017.9 |
| 20260508163914 | 60 | 225 | 0.0 | 0.0 | 0.00 | 0.00 | 0.01 | 81 | 1018.0 |
| 20260508162839 | 59 | 135 | 2.0 | 2.0 | 0.00 | 0.00 | 0.01 | 81 | 1017.9 |
| 20260508162319 | 59 | 248 | 1.0 | 1.0 | 0.00 | 0.00 | 0.01 | 82 | 1017.9 |
| 20260508161759 | 59 | 23 | 0.0 | 0.0 | 0.00 | 0.00 | 0.01 | 83 | 1017.9 |
| 20260508161239 | 58 | 338 | 0.0 | 0.0 | 0.00 | 0.00 | 0.01 | 84 | 1017.9 |
| 20260508160204 | 59 | 248 | 0.0 | 0.0 | 0.00 | 0.00 | 0.01 | 87 | 1017.9 |
| 20260508155644 | 59 | 113 | 0.0 | 0.0 | 0.00 | 0.00 | 0.01 | 89 | 1017.9 |
| 20260508155124 | 57 | 113 | 1.0 | 1.0 | 0.00 | 0.00 | 0.01 | 93 | 1017.8 |
| 20260508154604 | 55 | 68 | 1.0 | 1.0 | 0.00 | 0.00 | 0.01 | 94 | 1017.8 |
| 20260508154049 | 54 | 158 | 0.0 | 0.0 | 0.00 | 0.00 | 0.01 | 96 | 1017.7 |
| 20260508153009 | 53 | 23 | 2.0 | 2.0 | 0.00 | 0.00 | 0.01 | 98 | 1017.7 |
| 20260508152509 | 53 | 113 | 0.0 | 0.0 | 0.00 | 0.00 | 0.01 | 98 | 1017.7 |
| 20260508152009 | 52 | 90 | 2.0 | 2.0 | 0.00 | 0.00 | 0.01 | 98 | 1017.7 |
| 20260508151449 | 52 | 113 | 1.0 | 1.0 | 0.00 | 0.00 | 0.01 | 98 | 1017.6 |
| 20260508150949 | 51 | 68 | 2.0 | 2.0 | 0.00 | 0.00 | 0.01 | 98 | 1017.6 |
| 20260508150434 | 51 | 135 | 2.0 | 2.0 | 0.00 | 0.00 | 0.01 | 98 | 1017.5 |
| 20260508145934 | 51 | 158 | 1.0 | 1.0 | 0.00 | 0.00 | 0.01 | 98 | 1017.5 |
| 20260508144854 | 51 | 113 | 2.0 | 2.0 | 0.00 | 0.00 | 0.01 | 98 | 1017.7 |
| 20260508144334 | 51 | 293 | 0.0 | 0.0 | 0.00 | 0.00 | 0.01 | 98 | 1017.4 |
| 20260508143819 | 51 | 225 | 0.0 | 0.0 | 0.00 | 0.00 | 0.01 | 98 | 1017.4 |
| 20260508143259 | 51 | 0 | 0.0 | 0.0 | 0.00 | 0.00 | 0.01 | 98 | 1017.4 |
| 20260508142220 | 51 | 68 | 0.0 | 0.0 | 0.00 | 0.00 | 0.01 | 98 | 1017.3 |
| 20260508141704 | 51 | 23 | 0.0 | 0.0 | 0.00 | 0.00 | 0.01 | 98 | 1017.2 |
| 20260508140644 | 50 | 23 | 0.0 | 0.0 | 0.00 | 0.00 | 0.01 | 98 | 1017.2 |
| 20260508140124 | 50 | 113 | 0.0 | 0.0 | 0.00 | 0.00 | 0.01 | 98 | 1017.2 |
| 20260508135049 | 50 | 90 | 1.0 | 1.0 | 0.00 | 0.00 | 0.01 | 98 | 1017.1 |
| 20260508134529 | 50 | 113 | 0.0 | 0.0 | 0.00 | 0.00 | 0.01 | 98 | 1017.1 |
| 20260508133449 | 50 | 45 | 0.0 | 0.0 | 0.00 | 0.00 | 0.01 | 98 | 1017.0 |
| 20260508132934 | 50 | 293 | 0.0 | 0.0 | 0.00 | 0.00 | 0.01 | 98 | 1017.1 |
| 20260508132415 | 50 | 225 | 0.0 | 0.0 | 0.00 | 0.00 | 0.01 | 98 | 1017.1 |
| 20260508131914 | 50 | 225 | 0.0 | 0.0 | 0.00 | 0.00 | 0.01 | 98 | 1017.0 |
| 20260508130834 | 50 | 315 | 0.0 | 0.0 | 0.00 | 0.00 | 0.01 | 98 | 1017.0 |
| 20260508130319 | 50 | 158 | 0.0 | 0.0 | 0.00 | 0.00 | 0.01 | 98 | 1017.0 |
| 20260508125759 | 50 | 113 | 0.0 | 0.0 | 0.00 | 0.00 | 0.01 | 98 | 1017.0 |
| 20260508125239 | 50 | 158 | 0.0 | 0.0 | 0.00 | 0.00 | 0.01 | 98 | 1016.7 |
| 20260508124204 | 50 | 270 | 0.0 | 0.0 | 0.00 | 0.00 | 0.01 | 98 | 1016.7 |
| 20260508123644 | 50 | 180 | 1.0 | 1.0 | 0.01 | 0.00 | 0.01 | 98 | 1016.7 |
| 20260508123124 | 50 | 113 | 1.0 | 1.0 | 0.01 | 0.00 | 0.01 | 98 | 1016.7 |
| 20260508122049 | 50 | 90 | 2.0 | 2.0 | 0.01 | 0.00 | 0.01 | 98 | 1016.7 |
| 20260508121530 | 50 | 23 | 0.0 | 0.0 | 0.01 | 0.00 | 0.01 | 98 | 1016.7 |
| 20260508115934 | 50 | 68 | 3.0 | 3.0 | 0.01 | 0.00 | 0.01 | 98 | 1016.7 |
| 20260508115414 | 50 | 0 | 1.0 | 1.0 | 0.01 | 0.00 | 0.01 | 98 | 1016.7 |
| 20260508114334 | 50 | 90 | 1.0 | 1.0 | 0.01 | 0.00 | 0.01 | 98 | 1016.7 |
| 20260508113259 | 50 | 90 | 1.0 | 1.0 | 0.00 | 0.00 | 0.00 | 97 | 1016.7 |
| 20260508112739 | 50 | 113 | 0.0 | 0.0 | 0.00 | 0.00 | 0.00 | 97 | 1016.9 |
| 20260508111704 | 50 | 68 | 2.0 | 2.0 | 0.00 | 0.00 | 0.00 | 97 | 1016.7 |
| 20260508111144 | 50 | 68 | 2.0 | 2.0 | 0.00 | 0.00 | 0.00 | 97 | 1016.7 |
| 20260508110624 | 50 | 90 | 1.0 | 1.0 | 0.00 | 0.00 | 0.00 | 97 | 1016.7 |
| 20260508110104 | 50 | 68 | 2.0 | 2.0 | 0.00 | 0.00 | 0.00 | 97 | 1016.7 |
| 20260508105049 | 50 | 158 | 0.0 | 0.0 | 0.00 | 0.00 | 0.00 | 97 | 1017.0 |
| 20260508104529 | 50 | 23 | 1.0 | 1.0 | 0.00 | 0.00 | 0.00 | 97 | 1017.0 |
| 20260508104009 | 50 | 90 | 1.0 | 1.0 | 0.00 | 0.00 | 0.00 | 97 | 1016.9 |
| 20260508103450 | 50 | 23 | 0.0 | 0.0 | 0.00 | 0.00 | 0.00 | 97 | 1016.9 |
| 20260508102934 | 50 | 158 | 1.0 | 1.0 | 0.00 | 0.00 | 0.00 | 97 | 1016.7 |
| 20260508102414 | 50 | 158 | 0.0 | 0.0 | 0.00 | 0.00 | 0.00 | 97 | 1016.7 |
| 20260508101335 | 50 | 158 | 0.0 | 0.0 | 0.00 | 0.00 | 0.00 | 97 | 1016.7 |
| 20260508100820 | 50 | 158 | 0.0 | 0.0 | 0.00 | 0.00 | 0.00 | 97 | 1016.7 |
| 20260508095739 | 50 | 158 | 0.0 | 0.0 | 0.00 | 0.00 | 0.00 | 97 | 1016.9 |
| 20260508095219 | 50 | 225 | 0.0 | 0.0 | 0.00 | 0.00 | 0.00 | 97 | 1016.9 |
| 20260508094705 | 50 | 158 | 0.0 | 0.0 | 0.00 | 0.00 | 0.00 | 97 | 1016.9 |
| 20260508093604 | 50 | 180 | 0.0 | 0.0 | 0.00 | 0.00 | 0.00 | 97 | 1016.9 |
| 20260508093049 | 50 | 248 | 0.0 | 0.0 | 0.00 | 0.00 | 0.00 | 97 | 1016.7 |
| 20260508092549 | 50 | 270 | 0.0 | 0.0 | 0.00 | 0.00 | 0.00 | 97 | 1016.7 |
| 20260508092030 | 50 | 270 | 0.0 | 0.0 | 0.00 | 0.00 | 0.00 | 97 | 1016.7 |
| 20260508091509 | 50 | 225 | 0.0 | 0.0 | 0.00 | 0.00 | 0.00 | 97 | 1016.7 |
| 20260508090950 | 50 | 225 | 0.0 | 0.0 | 0.00 | 0.00 | 0.00 | 97 | 1016.7 |
| 20260508085914 | 50 | 158 | 0.0 | 0.0 | 0.00 | 0.00 | 0.00 | 97 | 1016.7 |
| 20260508085355 | 50 | 180 | 0.0 | 0.0 | 0.00 | 0.00 | 0.00 | 97 | 1016.7 |
| 20260508084835 | 50 | 45 | 0.0 | 0.0 | 0.00 | 0.00 | 0.00 | 97 | 1016.7 |
| 20260508084320 | 50 | 203 | 0.0 | 0.0 | 0.00 | 0.00 | 0.00 | 97 | 1016.7 |
| 20260508083819 | 50 | 45 | 2.0 | 2.0 | 0.00 | 0.00 | 0.00 | 97 | 1016.7 |
| 20260508083300 | 50 | 113 | 0.0 | 0.0 | 0.00 | 0.00 | 0.00 | 97 | 1016.7 |
| 20260508082219 | 50 | 180 | 0.0 | 0.0 | 0.00 | 0.00 | 0.00 | 97 | 1016.7 |
| 20260508080625 | 50 | 68 | 2.0 | 2.0 | 0.00 | 0.00 | 0.00 | 97 | 1016.7 |
| 20260508080124 | 50 | 23 | 2.0 | 2.0 | 0.00 | 0.00 | 0.00 | 97 | 1016.7 |
| 20260508075030 | 50 | 0 | 0.0 | 0.0 | 0.00 | 0.00 | 0.00 | 97 | 1016.7 |
| 20260508074510 | 50 | 0 | 0.0 | 0.0 | 0.00 | 0.00 | 0.00 | 97 | 1016.7 |
| 20260508073950 | 51 | 0 | 0.0 | 0.0 | 0.00 | 0.00 | 0.00 | 97 | 1016.7 |
| 20260508073435 | 50 | 0 | 0.0 | 0.0 | 0.00 | 0.00 | 0.00 | 97 | 1016.7 |
| 20260508072915 | 50 | 0 | 0.0 | 0.0 | 0.00 | 0.00 | 0.00 | 97 | 1016.7 |
| 20260508072356 | 50 | 0 | 0.0 | 0.0 | 0.00 | 0.00 | 0.00 | 97 | 1016.7 |
| 20260508071855 | 50 | 0 | 0.0 | 0.0 | 0.00 | 0.00 | 0.00 | 97 | 1016.7 |
| 20260508071335 | 50 | 0 | 0.0 | 0.0 | 0.00 | 0.00 | 0.00 | 96 | 1016.7 |
| 20260508070820 | 50 | 0 | 2.0 | 2.0 | 0.00 | 0.00 | 0.00 | 96 | 1016.7 |
| 20260508070300 | 50 | 0 | 0.0 | 0.0 | 0.00 | 0.00 | 0.00 | 96 | 1016.5 |
| 20260508065220 | 50 | 0 | 1.0 | 1.0 | 0.00 | 0.00 | 0.01 | 96 | 1016.5 |
| 20260508064705 | 50 | 0 | 0.0 | 0.0 | 0.00 | 0.00 | 0.01 | 96 | 1016.5 |
| 20260508064145 | 48 | 0 | 0.0 | 0.0 | 0.00 | 0.00 | 0.01 | 95 | 1016.7 |
| 20260508063645 | 47 | 248 | 0.0 | 0.0 | 0.00 | 0.00 | 0.01 | 94 | 1016.7 |
| 20260508062604 | 47 | 180 | 0.0 | 0.0 | 0.00 | 0.00 | 0.01 | 94 | 1016.5 |
| 20260508062044 | 48 | 248 | 0.0 | 0.0 | 0.00 | 0.00 | 0.01 | 94 | 1016.5 |
| 20260508061030 | 48 | 225 | 0.0 | 0.0 | 0.00 | 0.00 | 0.01 | 94 | 1016.5 |
| 20260508060510 | 48 | 225 | 0.0 | 0.0 | 0.00 | 0.00 | 0.01 | 94 | 1016.7 |
| 20260508055950 | 48 | 203 | 0.0 | 0.0 | 0.00 | 0.00 | 0.01 | 94 | 1016.7 |
| 20260508055434 | 48 | 225 | 0.0 | 0.0 | 0.00 | 0.00 | 0.01 | 94 | 1016.5 |
| 20260508054915 | 49 | 225 | 0.0 | 0.0 | 0.00 | 0.00 | 0.01 | 94 | 1016.5 |
| 20260508054355 | 49 | 225 | 0.0 | 0.0 | 0.00 | 0.00 | 0.01 | 94 | 1016.7 |
| 20260508053835 | 49 | 248 | 0.0 | 0.0 | 0.00 | 0.00 | 0.01 | 94 | 1016.7 |
| 20260508052800 | 49 | 248 | 0.0 | 0.0 | 0.00 | 0.00 | 0.01 | 94 | 1016.5 |
| 20260508052240 | 50 | 225 | 0.0 | 0.0 | 0.00 | 0.00 | 0.01 | 94 | 1016.5 |
| 20260508051200 | 50 | 248 | 0.0 | 0.0 | 0.00 | 0.00 | 0.01 | 94 | 1016.5 |
| 20260508050645 | 50 | 225 | 0.0 | 0.0 | 0.00 | 0.00 | 0.01 | 93 | 1016.5 |
| 20260508050125 | 50 | 225 | 0.0 | 0.0 | 0.00 | 0.00 | 0.01 | 93 | 1016.5 |
| 20260508045625 | 50 | 225 | 0.0 | 0.0 | 0.00 | 0.00 | 0.01 | 93 | 1016.5 |
| 20260508045125 | 50 | 248 | 0.0 | 0.0 | 0.00 | 0.00 | 0.01 | 93 | 1016.5 |
| 20260508044045 | 51 | 225 | 0.0 | 0.0 | 0.00 | 0.00 | 0.01 | 92 | 1016.5 |
| 20260508043545 | 51 | 225 | 0.0 | 0.0 | 0.00 | 0.00 | 0.01 | 92 | 1016.5 |
| 20260508043030 | 51 | 225 | 0.0 | 0.0 | 0.00 | 0.00 | 0.01 | 92 | 1016.2 |
| 20260508042010 | 51 | 225 | 0.0 | 0.0 | 0.00 | 0.00 | 0.01 | 91 | 1016.2 |
| 20260508041451 | 51 | 248 | 0.0 | 0.0 | 0.00 | 0.00 | 0.01 | 91 | 1016.2 |
| 20260508040950 | 51 | 248 | 0.0 | 0.0 | 0.00 | 0.00 | 0.01 | 90 | 1016.2 |
| 20260508035930 | 52 | 248 | 0.0 | 0.0 | 0.00 | 0.00 | 0.01 | 90 | 1016.0 |
| 20260508034855 | 53 | 225 | 0.0 | 0.0 | 0.00 | 0.00 | 0.01 | 88 | 1015.8 |
| 20260508033815 | 54 | 180 | 0.0 | 0.0 | 0.00 | 0.00 | 0.01 | 85 | 1015.6 |
| 20260508033300 | 55 | 270 | 0.0 | 0.0 | 0.00 | 0.00 | 0.01 | 84 | 1015.6 |
| 20260508032740 | 55 | 225 | 0.0 | 0.0 | 0.00 | 0.00 | 0.01 | 84 | 1015.6 |
| 20260508032220 | 56 | 180 | 0.0 | 0.0 | 0.00 | 0.00 | 0.01 | 83 | 1015.6 |
| 20260508031700 | 56 | 225 | 0.0 | 0.0 | 0.00 | 0.00 | 0.01 | 82 | 1015.6 |
| 20260508031145 | 57 | 270 | 0.0 | 0.0 | 0.00 | 0.00 | 0.01 | 80 | 1015.6 |
| 20260508030625 | 58 | 248 | 1.0 | 1.0 | 0.00 | 0.00 | 0.01 | 79 | 1015.5 |
| 20260508030105 | 59 | 248 | 2.0 | 2.0 | 0.00 | 0.00 | 0.01 | 78 | 1015.5 |
| 20260508025031 | 60 | 248 | 2.0 | 2.0 | 0.00 | 0.00 | 0.01 | 75 | 1015.3 |
| 20260508024510 | 61 | 225 | 3.0 | 3.0 | 0.00 | 0.00 | 0.01 | 74 | 1015.3 |